Flag for Norway Weather past 2 weeks in Indre Arna, Norway

Now
74 °F

Overcast.


Feels Like: 77 °F
Forecast: 61 / 81 °F
Wind: 1 mph from Southwest

Location: Bergen / Florida

Current Time: Jul 25, 2014 at 11:48:16 AM

Latest Report: Jul 25, 2014 at 11:00 AM


Visibility: 22 mi

Pressure: 30.21 "Hg

Humidity: 65%

Dew point: 62 °F

Location of Indre ArnaLocation

Historic Weather in Indre Arna — Graph

°F

Indre Arna temperature yesterday

Maximum temperature yesterday: 87 °F (at 5:00 PM)
Minimum temperature yesterday: 65 °F (at 6:00 AM)
Average temperature yesterday: 75 °F

Past Weeks' High & Low Weather Summary

 TemperatureHumidityPressure
High87 °F (Jul 24, 5:00 PM)90% (Jul 16, 5:00 AM)30.34 "Hg (Jul 16, 5:00 AM)
Low56 °F (Jul 16, 2:00 AM)26% (Jul 21, 12:00 PM)29.66 "Hg (Jul 14, 8:00 AM)
Average69 °F64%30.04 "Hg
* Reported Jul 10 10:00 AM — Jul 25 10:00 AM, Indre Arna, Weather by CustomWeather, © 2014

Note: Actual official high and low records may vary slightly from our data, if they occured in-between our weather recording intervals... More about our weather records

Advertising

Indre Arna weather history for previous 24 hours

 ConditionsComfort  
Time TempWeatherWind HumidityBarometerVisibility
10:00 AM
Jul 25
72 °FMild.1 mph72%30.21 "HgN/A
9:00 AM71 °FMild.2 mph74%30.20 "HgN/A
8:00 AM71 °FOvercast.2 mph74%30.18 "Hg25 mi
7:00 AM69 °FMild.1 mph78%30.17 "HgN/A
6:00 AM69 °FMild.1 mph77%30.16 "HgN/A
5:00 AM69 °FMild.1 mph76%30.16 "HgN/A
4:00 AM69 °FMild.1 mph73%30.16 "HgN/A
3:00 AM70 °FMild.1 mph69%30.16 "HgN/A
2:00 AM69 °FMild.1 mph68%30.16 "HgN/A
1:00 AM71 °FMild.1 mph69%30.16 "HgN/A
12:00 AM71 °FMild.1 mph70%30.16 "HgN/A
11:00 PM
Jul 24
73 °FPassing clouds.1 mph66%30.16 "Hg31 mi
10:00 PM75 °FMild.1 mph61%30.16 "HgN/A
9:00 PM76 °FMild.1 mph59%30.16 "HgN/A
8:00 PM77 °FPartly sunny.3 mph56%30.16 "Hg34 mi
7:00 PM79 °FWarm.2 mph50%30.16 "HgN/A
6:00 PM85 °FWarm.3 mph43%30.16 "HgN/A
5:00 PM87 °FPassing clouds.3 mph44%30.16 "Hg34 mi
4:00 PM85 °FWarm.3 mph47%30.16 "HgN/A
3:00 PM85 °FWarm.5 mph48%30.19 "HgN/A
2:00 PM84 °FPassing clouds.3 mph48%30.20 "Hg31 mi
1:00 PM83 °FWarm.2 mph48%30.20 "HgN/A
12:00 PM80 °FWarm.2 mph55%30.21 "HgN/A
11:00 AM78 °FPassing clouds.2 mph58%30.22 "Hg31 mi
Weather by CustomWeather, © 2014

See weather overviewHow to use our weather pages